Regional Weather Roundup
Issued by NWS

Home | Current Version | Previous Version | Graphics & Text | Print | Product List | Glossary On
Versions: 1 2 3 4 5 6 7 8 9 10 11 12 13 14 15 16 17 18 19 20 21 22 23 24 25 26 27 28 29 30 31 32 33 34 35 36 37 38 39 40 41 42 43 44 45 46 47 48 49 50
000
ASUS45 KBOU 271507
RWRCO

WEATHER ROUNDUP FOR COLORADO
NATIONAL WEATHER SERVICE DENVER/BOULDER CO
800 AM MST THU NOV 27 2014

NOTE: "FAIR" INDICATES FEW OR NO CLOUDS BELOW 12000 FEET WITH NO
SIGNIFICANT WEATHER AND/OR OBSTRUCTIONS TO VISIBILITY.

COZ001>005-013-030-031-271600-
...NORTHWEST COLORADO...

CITY           SKY/WX    TMP DP  RH WIND       PRES   REMARKS
CRAIG          MOCLDY    25  21  85 W3        30.40S
HAYDEN         PTCLDY    27  19  74 E12       30.40F WCI  16
MEEKER         MOCLDY    27  22  81 CALM      30.43S
MOUNT WERNER   NOT AVBL
STEAMBOAT SPGS   N/A     21  20  95 CALM      30.42S VSB 1/2
WALDEN         CLOUDY    34  19  55 W16G22    30.36S WCI  23
$$

COZ006>008-011-271600-
...WEST CENTRAL VALLEYS...

CITY           SKY/WX    TMP DP  RH WIND       PRES   REMARKS
GRAND JUNCTION PTCLDY    26  23  88 CALM      30.48R
MONTROSE       PTCLDY    25  20  81 S7        30.52R WCI  17
EAGLE          PTCLDY    21  19  93 CALM      30.52R
RIFLE          PTCLDY    22  19  89 SW5       30.51S WCI  16
DELTA          PTCLDY    28  23  82 CALM      30.52R
NUCLA          PTCLDY    28  23  80 CALM      30.54R
$$

COZ017>023-064>068-271600-
...SOUTHWEST COLORADO...

CITY           SKY/WX    TMP DP  RH WIND       PRES   REMARKS
DURANGO        CLEAR     26  21  81 N5        30.50R WCI  20
CORTEZ         CLEAR     21  16  81 NE3       30.49S
PAGOSA SPRINGS CLEAR     24  22  90 CALM      30.51S
TELLURIDE      CLEAR     28  17  63 SE9       30.56F WCI  19
WOLF CREEK PAS   N/A     34  -8  16 MISG      30.62R
$$

COZ009-010-012-014-032>034-037-058>063-271600-
...CENTRAL COLORADO...

CITY           SKY/WX    TMP DP  RH WIND       PRES   REMARKS
ASPEN          PTCLDY    20  15  81 SW8       30.49S WCI  10
BUENA VISTA    PTCLDY    25  18  75 CALM      30.46R
COPPER MTN     MOCLDY    25  10  54 W14       30.53R WCI  13
BERTHOUD PASS  NOT AVBL
COTTONWOOD PAS PTCLDY    34  14  44 CALM      30.47S
GUNNISON       PTCLDY    12   7  79 CALM      30.60R
KREMMLING      MOCLDY    25  19  80 CALM      30.46S
LEADVILLE      PTCLDY    30   9  41 N17G25    30.47R WCI  18
MONARCH PASS     N/A     19  18  93 MISG      30.61R
SALIDA         PTCLDY    34  19  53 N13       30.51S WCI  25
SUNLIGHT       PTCLDY    27  23  86 SW6       30.54S WCI  20
WILKERSON PASS PTCLDY    28   1  31 W10       30.50R WCI  19
$$

COZ069>075-271600-
...SAN LUIS VALLEY/SANGRE DE CRISTO MOUNTAINS...

CITY           SKY/WX    TMP DP  RH WIND       PRES   REMARKS
ALAMOSA        PTSUNNY   18  12  77 SW6       30.52R WCI  10
LA VETA PASS   MOSUNNY   30  14  51 S10G16    30.50S WCI  21
SAGUACHE       PTCLDY    28  19  69 NW22      30.52R WCI  15
$$

COZ035-036-038>040-271600-
...NORTHERN COLORADO FRONT RANGE...

CITY           SKY/WX    TMP DP  RH WIND       PRES   REMARKS
DENVER INTL AP CLOUDY    46  18  32 SW13      30.21R
DMNS CITY PARK   N/A     41  20  41 S7        30.23R
AURORA         MOCLDY    46  16  30 SW8       30.24R
FRONT RANGE AP MOCLDY    45  21  39 S13       30.22S
ERIE MUNI ARPT CLOUDY    44  22  42 CALM      30.19R
BOULDER MUN AP CLOUDY    52  14  22 W7        30.20S
CENTENNIAL     CLOUDY    46  16  30 S6        30.24S
BROOMFIELD     MOCLDY    55  10  16 W36G41    30.20S
FORT COLLINS   MOCLDY    21  18  86 CALM      30.19S
LONGMONT       MOCLDY    31  26  78 N5        30.20F WCI  27
$$

COZ041-046-047-076>085-087-088-271600-
...PIKES PEAK/PALMER DIVIDE AND SOUTHERN FOOTHILLS...

CITY           SKY/WX    TMP DP  RH WIND       PRES   REMARKS
COLO. SPRINGS  MOCLDY    40  24  53 N6        30.28S
A. F. ACADEMY  MOCLDY    40  18  40 NE9       30.27F
ELLICOTT       NOT AVBL
FALCON         NOT AVBL
FORT CARSON    PTSUNNY   35  24  63 W5        30.26S WCI  31
LIMON          CLOUDY    29  24  82 CALM      30.25S
MONUMENT HILL  MOCLDY    45  12  26 SW9       30.28S
TRINIDAD       MOSUNNY   40  20  44 W12       30.33R
$$

COZ042>045-048>051-090-091-271600-
...NORTHEAST COLORADO...

CITY           SKY/WX    TMP DP  RH WIND       PRES   REMARKS
GREELEY ARPT   CLOUDY    21  14  73 CALM      30.20F
AKRON          MOSUNNY   40  25  55 S9        30.18F
BURLINGTON     SUNNY     34  23  64 SW13      30.25S WCI  25
WRAY           MOSUNNY   27  24  89 W7        30.21S WCI  19
STERLING       PTCLDY    28  27  93 SW6       30.19R WCI  22
HOLYOKE        MOSUNNY   32  28  86 W6        30.19S WCI  26
FORT MORGAN    PTCLDY    28  25  90 W9        30.20R WCI  19
$$

COZ086-089-092>099-271600-
...SOUTHEAST COLORADO...

CITY           SKY/WX    TMP DP  RH WIND       PRES   REMARKS
PUEBLO         PTSUNNY   26  22  84 CALM      30.28S
LA JUNTA       PTSUNNY   25  20  81 W9        30.29S WCI  15
LAMAR          MOSUNNY   23  20  88 CALM      30.30S
SPRINGFIELD      N/A     30  24  78 SW5       30.30R WCI  25
$$



USA.gov is the U.S. government's official web portal to all federal, state and local government web resources and services.